Showing default

FLOCK 4BE 18, 60480

Orbit data source: Space-Track

FLOCK 4BE 18, 60480 is a payload satellite owned by Planet (US) in SSO that was launched on Fri, 16 Aug 2024 UTC via an FALCON 9 launch vehicle from the Air Force Western Test Range (AFWTR). Payload-class satellites include a variety of spacecraft equipped with specific instruments for various scientific and technological missions. These include communications satellites like Starlink; space stations such as the ISS; scientific satellites like the Hubble; Earth observation satellites from companies like Planet Labs, Umbra, and HawkEye 360; GPS; miniature CubeSats for education and research; and military/defense satellites.

Loading next visibility...
Identifier
60480, 2024-149N
Orbit
SSO
Country
Flag of USUS
Related business
Manufacturer
Planet
Mission
Partially operational Commercial Imaging
Bus & Motor
CUBESAT 3U, Unknown motor
Mass
5.7 kg wet, 5.7 kg dry
Launch date (UTC)
2024-08-16 (2 years ago)
Launch vehicle
FALCON 9
Launch site
Air Force Western Test Range (AFWTR)
Object type
Payload
Rocket body
Debris
Shape & HBR
Box + 2 Pan, 1.0 m
Radar Cross Section
0.072 m², Medium (>0.1 m² and < 1m²)

Expand to show TLE details & history
Last TLE update: 19 hours ago

TLE from 19 hours ago
0 FLOCK 4BE 18
1 60480U 24149N   26265.46195638  .00027853  00000-0  58366-3 0  9997
2 60480  97.3677 350.3941 0002701 247.0877 113.0087 15.45383320117316
Epoch: 2026-09-22T11:05Z
TLE epoch observation values (Epoch: 2026-09-22T11:05:13.031Z)
Latitude
-0.00001°
Longitude
-177.23729°
Altitude
434.097 km
Speed
7.651 km/s
True Right ascension
23h 21m 34s
True Declination
0° 00' 00"
Sunlit
Object was in full shadow at epoch
Visualization orbit readout
Latitude
Unknown
Longitude
Unknown
Altitude
Unknown
Speed
Unknown
Apparent Right ascension
Unknown
Apparent Declination
Unknown
Sunlit
N/A
Visualization observer readout
Local Sidereal Time
23:15:48
Azimuth
Unknown
Elevation
Unknown
Doppler factor
Unknown
Orbital elements
Apogee altitude
429.021 km
Perigee altitude
425.344 km
Semi-major axis
6,805.319 km
Eccentricity
0.00027
Inclination
97.3677°
RAAN
350.3941°
Arg. of periapsis
247.0877°
True anomaly
113.03719°
Mean anomaly
113.0087°
Eccentric anomaly
113.02294°
Mean motion
3.86608 °/min
Orbital period
93.12 mins
BSTAR
0.00058366
Loading maneuver chart data...
Computing Atmospheric mass density...
Loading historical data...
Loading historical data...
Loading historical data...
Loading historical data...
Loading historical data...
Loading historical data...
Loading historical data...

Documentation

Showing up to 5 results
|